ECHOSTAR 23

Last updated on Sat Aug 22 2026 00:02:59 GMT+0000 (Coordinated Universal Time)

1 42070U 17014A 26233.17535184 -.00000059 00000+0 00000+0 0 9999 2 42070 0.0163 113.0407 0002102 36.4093 133.2722 1.00272962 34579
UTC large
Height (km)
Speed (km/s)
/
Latitude / Longitude
Inclination (degrees)
Orbital Period (minutes)
Azimuth
Elevation
Range (km)
Doppler Factor

Next 0 passes for location: London (51.5072 / 0.1276)

No passes found over London.
ECHOSTAR 23